Location: *
(43.2048°N, 0.1612°E)
Time: 22:00:52
(UTC+00:00)

Thor Agena Rocket - Pass Details

Date: 30 September 2023
Orbit: 757 x 806 km, 99.0° (Epoch: 05 December)

Event Time Altitude Azimuth Distance (km) Brightness Sun altitude
Rises 03:44:30 0° 5° (N) 3,317 7.1 -24.2°
Reaches altitude 10° 03:47:00 10° 357° (N) 2,388 6.2 -23.8°
Enters shadow 03:50:56 32° 312° (NW) 1,348 4.5 -23.1°
